Date String (YYYY-MM-DD hh:mm:ss) UTC,Instrument flags,Ambient pressure (hPa),Sample flow (lpm),Bypass flow (lpm),Sample temperature (°C),Ambient temperature (°C),ASC tube jacket temperature (°C),LED temperature (°C),Box temperature (°C),Sample RH (%),Span deviation,Mass concentration (μg/m³),Mass concentration (μg/m³),Mass concentration (μg/m³)
DateTimeUTC,F1_M11,P_M11,Q1_M11,Q2_M11,T1_M11,T2_M11,T3_M11,T4_M11,T5_M11,U1_M11,ZSPAN_M11,X2_M11,X0_M11,X1_M11
2021-08-24 13:00:00,,0827.9,5.00,0.00,29.6,28.9,00.0,38.8,31.3,13.2,0000.0,0003.17,0005.43,0002.81
2021-08-24 13:01:00,,0827.9,5.01,0.00,29.6,28.9,00.0,38.8,31.3,13.2,0000.0,0003.16,0004.79,0002.81
2021-08-24 13:02:00,,0828.0,4.98,0.00,29.6,28.9,00.0,38.8,31.3,14.0,0000.0,0003.14,0005.46,0002.80
2021-08-24 13:03:00,,0828.0,5.00,0.00,29.6,28.9,00.0,38.8,31.4,13.3,0000.0,0003.15,0005.47,0002.81
2021-08-24 13:04:00,,0827.9,5.00,0.00,29.6,28.9,00.0,38.8,31.4,13.1,0000.0,0003.17,0005.52,0002.85
2021-08-24 13:05:00,,0828.0,5.00,0.00,29.6,28.9,00.0,38.8,31.4,13.1,0000.0,0003.19,0005.56,0002.85
2021-08-24 13:06:00,,0828.0,5.00,0.00,29.6,28.9,00.0,38.8,31.4,13.1,0000.0,0003.19,0005.62,0002.85
2021-08-24 13:07:00,,0828.0,5.00,0.00,29.7,29.0,00.0,38.8,31.4,13.2,0000.0,0003.18,0005.59,0002.85
2021-08-24 13:08:00,,0828.0,5.01,0.00,29.7,29.0,00.0,38.8,31.4,13.3,0000.0,0003.18,0006.55,0002.85
2021-08-24 13:09:00,,0828.1,4.99,0.00,29.7,29.0,00.0,38.8,31.4,13.2,0000.0,0003.18,0006.42,0002.88
2021-08-24 13:10:00,,0828.1,5.00,0.00,29.7,29.0,00.0,38.8,31.4,13.5,0000.0,0003.19,0006.91,0002.88
2021-08-24 13:11:00,,0828.1,5.00,0.00,29.7,29.0,00.0,38.8,31.4,13.2,0000.0,0003.17,0007.61,0002.87
2021-08-24 13:12:00,,0828.1,5.01,0.00,29.7,29.0,00.0,38.8,31.4,13.9,0000.0,0003.16,0007.60,0002.86
2021-08-24 13:13:00,,0828.1,4.99,0.00,29.7,29.0,00.0,38.8,31.4,13.2,0000.0,0003.17,0006.60,0002.88
2021-08-24 13:14:00,,0828.1,5.01,0.00,29.7,29.0,00.0,38.8,31.4,13.2,0000.0,0003.14,0006.49,0002.86
2021-08-24 13:15:00,,0828.1,4.99,0.00,29.7,29.0,00.0,38.8,31.4,13.3,0000.0,0003.13,0006.52,0002.83
2021-08-24 13:16:00,,0828.1,5.01,0.00,29.7,29.0,00.0,38.8,31.4,13.5,0000.0,0003.15,0006.60,0002.85
2021-08-24 13:17:00,,0828.1,5.00,0.00,29.7,29.1,00.0,38.8,31.4,13.2,0000.0,0003.19,0006.73,0002.87
2021-08-24 13:18:00,,0828.1,4.99,0.00,29.7,29.1,00.0,38.8,31.5,13.3,0000.0,0003.20,0007.31,0002.87
2021-08-24 13:19:00,,0828.1,5.01,0.00,29.8,29.1,00.0,38.8,31.5,13.4,0000.0,0003.20,0006.82,0002.88
2021-08-24 13:20:00,,0828.1,4.99,0.00,29.8,29.2,00.0,38.9,31.6,13.5,0000.0,0003.20,0006.71,0002.90
2021-08-24 13:21:00,,0828.1,5.00,0.00,29.8,29.2,00.0,38.9,31.6,13.5,0000.0,0003.20,0006.39,0002.92
2021-08-24 13:22:00,,0828.1,5.00,0.00,29.8,29.2,00.0,38.9,31.6,13.8,0000.0,0003.21,0005.30,0002.95
2021-08-24 13:23:00,,0828.1,4.99,0.00,29.9,29.3,00.0,38.9,31.7,14.1,0000.0,0003.23,0005.40,0002.98
2021-08-24 13:24:00,,0828.1,5.02,0.00,29.9,29.3,00.0,38.9,31.7,14.5,0000.0,0003.27,0005.80,0003.03
2021-08-24 13:25:00,,0828.1,4.99,0.00,29.9,29.3,00.0,38.9,31.7,15.2,0000.0,0003.34,0005.99,0003.10
2021-08-24 13:26:00,,0828.1,5.01,0.00,30.0,29.4,00.0,38.9,31.8,15.1,0000.0,0003.40,0006.20,0003.15
2021-08-24 13:27:00,,0828.1,5.00,0.00,30.0,29.4,00.0,39.0,31.8,15.0,0000.0,0003.41,0006.21,0003.17
2021-08-24 13:28:00,,0828.2,5.00,0.00,30.0,29.4,00.0,39.0,31.8,15.3,0000.0,0003.42,0006.25,0003.18
2021-08-24 13:29:00,,0828.3,5.00,0.00,30.1,29.2,00.0,39.0,31.8,15.2,0000.0,0003.45,0005.79,0003.21
2021-08-24 13:30:00,,0828.1,5.00,0.00,30.0,27.5,00.0,39.0,31.4,16.3,0000.0,0003.48,0005.73,0003.23
2021-08-24 13:31:00,,0828.2,5.01,0.00,29.9,26.5,00.0,39.0,31.2,19.1,0000.0,0003.49,0005.78,0003.24
2021-08-24 13:32:00,,0828.1,4.99,0.00,29.8,26.7,00.0,39.0,31.2,19.9,0000.0,0003.50,0005.80,0003.23
2021-08-24 13:33:00,,0828.2,5.01,0.00,29.7,27.1,00.0,38.9,31.2,18.5,0000.0,0003.48,0005.74,0003.22
2021-08-24 13:34:00,,0828.1,5.00,0.00,29.7,27.5,00.0,38.9,31.2,14.9,0000.0,0003.47,0005.69,0003.21
2021-08-24 13:35:00,,0828.2,5.00,0.00,29.7,27.8,00.0,38.9,31.3,15.0,0000.0,0003.48,0005.85,0003.20
2021-08-24 13:36:00,,0828.3,5.01,0.00,29.7,28.1,00.0,38.9,31.3,14.8,0000.0,0003.49,0006.78,0003.19
2021-08-24 13:37:00,,0828.1,5.00,0.00,29.7,28.3,00.0,38.8,31.4,14.8,0000.0,0003.49,0006.63,0003.18
2021-08-24 13:38:00,,0828.1,5.00,0.00,29.7,28.4,00.0,38.8,31.4,14.7,0000.0,0003.51,0006.89,0003.18
2021-08-24 13:39:00,,0828.2,5.00,0.00,29.8,28.6,00.0,38.9,31.5,15.0,0000.0,0003.53,0007.04,0003.16
2021-08-24 13:40:00,,0828.2,5.00,0.00,29.8,28.7,00.0,38.9,31.5,15.2,0000.0,0003.52,0007.59,0003.14
2021-08-24 13:41:00,,0828.2,5.00,0.00,29.8,28.8,00.0,38.9,31.6,18.2,0000.0,0003.50,0007.73,0003.12
2021-08-24 13:42:00,,0828.2,5.00,0.00,29.8,28.8,00.0,38.9,31.6,17.0,0000.0,0003.49,0007.66,0003.10
2021-08-24 13:43:00,,0828.2,5.00,0.00,29.8,28.9,00.0,38.9,31.6,15.0,0000.0,0003.49,0007.69,0003.10
2021-08-24 13:44:00,,0828.3,5.00,0.00,29.9,28.9,00.0,38.9,31.6,14.6,0000.0,0003.50,0007.77,0003.11
2021-08-24 13:45:00,,0828.2,5.00,0.00,29.9,29.0,00.0,38.9,31.6,14.3,0000.0,0003.51,0007.79,0003.12
2021-08-24 13:46:00,,0828.2,5.00,0.00,29.9,29.0,00.0,38.9,31.7,14.9,0000.0,0003.49,0007.76,0003.11
2021-08-24 13:47:00,,0828.2,5.00,0.00,29.9,29.0,00.0,38.9,31.7,14.8,0000.0,0003.42,0006.64,0003.09
2021-08-24 13:48:00,,0828.3,5.01,0.00,29.9,29.1,00.0,39.0,31.7,15.0,0000.0,0003.37,0006.49,0003.04
2021-08-24 13:49:00,,0828.3,4.99,0.00,29.9,29.1,00.0,39.0,31.7,16.2,0000.0,0003.34,0006.45,0003.00
2021-08-24 13:50:00,,0828.3,5.01,0.00,29.9,29.1,00.0,39.0,31.7,15.6,0000.0,0003.29,0006.26,0002.99
2021-08-24 13:51:00,,0828.3,5.00,0.00,29.9,29.1,00.0,39.0,31.7,15.0,0000.0,0003.29,0005.68,0003.00
2021-08-24 13:52:00,,0828.2,5.00,0.00,30.0,29.2,00.0,39.0,31.8,14.8,0000.0,0003.26,0005.49,0002.99
2021-08-24 13:53:00,,0828.2,5.00,0.00,30.0,29.2,00.0,39.0,31.7,14.8,0000.0,0003.29,0005.91,0003.01
2021-08-24 13:54:00,,0828.3,4.98,0.00,30.0,29.2,00.0,39.0,31.7,15.1,0000.0,0003.30,0005.88,0003.03
2021-08-24 13:55:00,,0828.2,5.02,0.00,30.0,29.3,00.0,39.1,31.8,14.7,0000.0,0003.31,0006.10,0003.04
2021-08-24 13:56:00,,0828.3,5.00,0.00,30.0,29.3,00.0,39.1,31.9,14.4,0000.0,0003.32,0007.16,0003.05
2021-08-24 13:57:00,,0828.3,5.00,0.00,30.1,29.3,00.0,39.1,31.9,15.4,0000.0,0003.34,0007.32,0003.05
2021-08-24 13:58:00,,0828.3,4.99,0.00,30.1,29.4,00.0,39.1,31.9,16.9,0000.0,0003.35,0007.30,0003.06
2021-08-24 13:59:00,,0828.4,5.01,0.00,30.1,29.4,00.0,39.1,31.9,17.5,0000.0,0003.34,0007.28,0003.06
